# Tabular Observed and Forecast Hydrograph Information
#
# Location: Pilot Creek - Abv Stumpy Meadows Reservoir (SPYC1)
#
# File Generation Time: 05/08/2026 at 09:32 AM PDT
# Data Interval: 1 Hour
#
# Most Recent Date & Time of Maximum Observed: 05/04/2026 at 11:00 PM PDT
# Maximum Observed Flow: 100 cfs
#
# Earliest Date & Time of Maximum Forecast: 05/08/2026 at 10:00 AM PDT
# Maximum Forecast Flow: 66 cfs
#
# OBSERVED
#
# Date & Time (Local) Flow (cfs) Trend Observed Status
# ----------------------------------------------------------------
05/03/2026 09 AM PDT 75 Not Applicable
05/03/2026 10 AM PDT 75 0 Not Applicable
05/03/2026 11 AM PDT 75 0 Not Applicable
05/03/2026 12 PM PDT 75 0 Not Applicable
05/03/2026 01 PM PDT 74 - Not Applicable
05/03/2026 02 PM PDT 75 + Not Applicable
05/03/2026 03 PM PDT 75 0 Not Applicable
05/03/2026 04 PM PDT 74 - Not Applicable
05/03/2026 05 PM PDT 74 0 Not Applicable
05/03/2026 06 PM PDT 74 0 Not Applicable
05/03/2026 07 PM PDT 74 0 Not Applicable
05/03/2026 08 PM PDT 74 0 Not Applicable
05/03/2026 09 PM PDT 72 - Not Applicable
05/03/2026 10 PM PDT 73 + Not Applicable
05/03/2026 11 PM PDT 74 + Not Applicable
05/04/2026 12 AM PDT 74 0 Not Applicable
05/04/2026 01 AM PDT 72 - Not Applicable
05/04/2026 02 AM PDT 72 0 Not Applicable
05/04/2026 03 AM PDT 72 0 Not Applicable
05/04/2026 04 AM PDT 74 + Not Applicable
05/04/2026 05 AM PDT 74 0 Not Applicable
05/04/2026 06 AM PDT 74 0 Not Applicable
05/04/2026 07 AM PDT 74 0 Not Applicable
05/04/2026 08 AM PDT 72 - Not Applicable
05/04/2026 09 AM PDT 74 + Not Applicable
05/04/2026 10 AM PDT 73 - Not Applicable
05/04/2026 11 AM PDT 72 - Not Applicable
05/04/2026 12 PM PDT 74 + Not Applicable
05/04/2026 01 PM PDT 74 0 Not Applicable
05/04/2026 02 PM PDT 74 0 Not Applicable
05/04/2026 03 PM PDT 75 + Not Applicable
05/04/2026 04 PM PDT 78 + Not Applicable
05/04/2026 05 PM PDT 80 + Not Applicable
05/04/2026 06 PM PDT 81 + Not Applicable
05/04/2026 07 PM PDT 84 + Not Applicable
05/04/2026 08 PM PDT 89 + Not Applicable
05/04/2026 09 PM PDT 96 + Not Applicable
05/04/2026 10 PM PDT 98 + Not Applicable
05/04/2026 11 PM PDT 100 + Not Applicable
05/05/2026 12 AM PDT 98 - Not Applicable
05/05/2026 01 AM PDT 98 0 Not Applicable
05/05/2026 02 AM PDT 96 - Not Applicable
05/05/2026 03 AM PDT 95 - Not Applicable
05/05/2026 04 AM PDT 92 - Not Applicable
05/05/2026 05 AM PDT 91 - Not Applicable
05/05/2026 06 AM PDT 90 - Not Applicable
05/05/2026 07 AM PDT 87 - Not Applicable
05/05/2026 08 AM PDT 87 0 Not Applicable
05/05/2026 09 AM PDT 86 - Not Applicable
05/05/2026 10 AM PDT 86 0 Not Applicable
05/05/2026 11 AM PDT 85 - Not Applicable
05/05/2026 12 PM PDT 85 0 Not Applicable
05/05/2026 01 PM PDT 84 - Not Applicable
05/05/2026 02 PM PDT 84 0 Not Applicable
05/05/2026 03 PM PDT 83 - Not Applicable
05/05/2026 04 PM PDT 83 0 Not Applicable
05/05/2026 05 PM PDT 83 0 Not Applicable
05/05/2026 06 PM PDT 82 - Not Applicable
05/05/2026 07 PM PDT 82 0 Not Applicable
05/05/2026 08 PM PDT 81 - Not Applicable
05/05/2026 09 PM PDT 80 - Not Applicable
05/05/2026 10 PM PDT 80 0 Not Applicable
05/05/2026 11 PM PDT 80 0 Not Applicable
05/06/2026 12 AM PDT 80 0 Not Applicable
05/06/2026 01 AM PDT 80 0 Not Applicable
05/06/2026 02 AM PDT 80 0 Not Applicable
05/06/2026 03 AM PDT 80 0 Not Applicable
05/06/2026 04 AM PDT 79 - Not Applicable
05/06/2026 05 AM PDT 79 0 Not Applicable
05/06/2026 06 AM PDT 79 0 Not Applicable
05/06/2026 07 AM PDT 79 0 Not Applicable
05/06/2026 08 AM PDT 78 - Not Applicable
05/06/2026 09 AM PDT 79 + Not Applicable
05/06/2026 10 AM PDT 79 0 Not Applicable
05/06/2026 11 AM PDT 78 - Not Applicable
05/06/2026 12 PM PDT 77 - Not Applicable
05/06/2026 01 PM PDT 78 + Not Applicable
05/06/2026 02 PM PDT 77 - Not Applicable
05/06/2026 03 PM PDT 77 0 Not Applicable
05/06/2026 04 PM PDT 77 0 Not Applicable
05/06/2026 05 PM PDT 75 - Not Applicable
05/06/2026 06 PM PDT 74 - Not Applicable
05/06/2026 07 PM PDT 75 + Not Applicable
05/06/2026 08 PM PDT 74 - Not Applicable
05/06/2026 09 PM PDT 72 - Not Applicable
05/06/2026 10 PM PDT 72 0 Not Applicable
05/06/2026 11 PM PDT 72 0 Not Applicable
05/07/2026 12 AM PDT 72 0 Not Applicable
05/07/2026 01 AM PDT 72 0 Not Applicable
05/07/2026 02 AM PDT 72 0 Not Applicable
05/07/2026 03 AM PDT 72 0 Not Applicable
05/07/2026 04 AM PDT 72 0 Not Applicable
05/07/2026 05 AM PDT 72 0 Not Applicable
05/07/2026 06 AM PDT 72 0 Not Applicable
05/07/2026 07 AM PDT 72 0 Not Applicable
05/07/2026 08 AM PDT 72 0 Not Applicable
05/07/2026 09 AM PDT 72 0 Not Applicable
05/07/2026 10 AM PDT 72 0 Not Applicable
05/07/2026 11 AM PDT 72 0 Not Applicable
05/07/2026 12 PM PDT 72 0 Not Applicable
05/07/2026 01 PM PDT 70 - Not Applicable
05/07/2026 02 PM PDT 72 + Not Applicable
05/07/2026 03 PM PDT 70 - Not Applicable
05/07/2026 04 PM PDT 69 - Not Applicable
05/07/2026 05 PM PDT 69 0 Not Applicable
05/07/2026 06 PM PDT 67 - Not Applicable
05/07/2026 07 PM PDT 67 0 Not Applicable
05/07/2026 08 PM PDT 66 - Not Applicable
05/07/2026 09 PM PDT 66 0 Not Applicable
05/07/2026 10 PM PDT 66 0 Not Applicable
05/07/2026 11 PM PDT 65 - Not Applicable
05/08/2026 12 AM PDT 66 + Not Applicable
05/08/2026 01 AM PDT 66 0 Not Applicable
05/08/2026 02 AM PDT 67 + Not Applicable
05/08/2026 03 AM PDT 67 0 Not Applicable
05/08/2026 04 AM PDT 66 - Not Applicable
05/08/2026 05 AM PDT 66 0 Not Applicable
05/08/2026 06 AM PDT 66 0 Not Applicable
05/08/2026 07 AM PDT 67 + Not Applicable
05/08/2026 08 AM PDT 67 0 Not Applicable
05/08/2026 09 AM PDT 67 0 Not Applicable
#
# FORECAST
#
# Date & Time (Local) Flow (cfs) Trend Forecast Status
# ----------------------------------------------------------------
05/08/2026 10 AM PDT 66 Not Applicable
05/08/2026 11 AM PDT 66 0 Not Applicable
05/08/2026 12 PM PDT 66 0 Not Applicable
05/08/2026 01 PM PDT 66 0 Not Applicable
05/08/2026 02 PM PDT 66 0 Not Applicable
05/08/2026 03 PM PDT 66 0 Not Applicable
05/08/2026 04 PM PDT 65 - Not Applicable
05/08/2026 05 PM PDT 65 0 Not Applicable
05/08/2026 06 PM PDT 65 0 Not Applicable
05/08/2026 07 PM PDT 65 0 Not Applicable
05/08/2026 08 PM PDT 65 0 Not Applicable
05/08/2026 09 PM PDT 64 - Not Applicable
05/08/2026 10 PM PDT 64 0 Not Applicable
05/08/2026 11 PM PDT 64 0 Not Applicable
05/09/2026 12 AM PDT 64 0 Not Applicable
05/09/2026 01 AM PDT 64 0 Not Applicable
05/09/2026 02 AM PDT 64 0 Not Applicable
05/09/2026 03 AM PDT 64 0 Not Applicable
05/09/2026 04 AM PDT 63 - Not Applicable
05/09/2026 05 AM PDT 63 0 Not Applicable
05/09/2026 06 AM PDT 63 0 Not Applicable
05/09/2026 07 AM PDT 63 0 Not Applicable
05/09/2026 08 AM PDT 63 0 Not Applicable
05/09/2026 09 AM PDT 63 0 Not Applicable
05/09/2026 10 AM PDT 63 0 Not Applicable
05/09/2026 11 AM PDT 62 - Not Applicable
05/09/2026 12 PM PDT 62 0 Not Applicable
05/09/2026 01 PM PDT 62 0 Not Applicable
05/09/2026 02 PM PDT 62 0 Not Applicable
05/09/2026 03 PM PDT 62 0 Not Applicable
05/09/2026 04 PM PDT 62 0 Not Applicable
05/09/2026 05 PM PDT 62 0 Not Applicable
05/09/2026 06 PM PDT 61 - Not Applicable
05/09/2026 07 PM PDT 61 0 Not Applicable
05/09/2026 08 PM PDT 61 0 Not Applicable
05/09/2026 09 PM PDT 61 0 Not Applicable
05/09/2026 10 PM PDT 61 0 Not Applicable
05/09/2026 11 PM PDT 61 0 Not Applicable
05/10/2026 12 AM PDT 61 0 Not Applicable
05/10/2026 01 AM PDT 61 0 Not Applicable
05/10/2026 02 AM PDT 60 - Not Applicable
05/10/2026 03 AM PDT 60 0 Not Applicable
05/10/2026 04 AM PDT 60 0 Not Applicable
05/10/2026 05 AM PDT 60 0 Not Applicable
05/10/2026 06 AM PDT 60 0 Not Applicable
05/10/2026 07 AM PDT 60 0 Not Applicable
05/10/2026 08 AM PDT 60 0 Not Applicable
05/10/2026 09 AM PDT 60 0 Not Applicable
05/10/2026 10 AM PDT 60 0 Not Applicable
05/10/2026 11 AM PDT 59 - Not Applicable
05/10/2026 12 PM PDT 59 0 Not Applicable
05/10/2026 01 PM PDT 59 0 Not Applicable
05/10/2026 02 PM PDT 59 0 Not Applicable
05/10/2026 03 PM PDT 59 0 Not Applicable
05/10/2026 04 PM PDT 59 0 Not Applicable
05/10/2026 05 PM PDT 59 0 Not Applicable
05/10/2026 06 PM PDT 59 0 Not Applicable
05/10/2026 07 PM PDT 59 0 Not Applicable
05/10/2026 08 PM PDT 58 - Not Applicable
05/10/2026 09 PM PDT 58 0 Not Applicable
05/10/2026 10 PM PDT 58 0 Not Applicable
05/10/2026 11 PM PDT 58 0 Not Applicable
05/11/2026 12 AM PDT 58 0 Not Applicable
05/11/2026 01 AM PDT 58 0 Not Applicable
05/11/2026 02 AM PDT 58 0 Not Applicable
05/11/2026 03 AM PDT 58 0 Not Applicable
05/11/2026 04 AM PDT 58 0 Not Applicable
05/11/2026 05 AM PDT 58 0 Not Applicable
05/11/2026 06 AM PDT 57 - Not Applicable
05/11/2026 07 AM PDT 57 0 Not Applicable
05/11/2026 08 AM PDT 57 0 Not Applicable
05/11/2026 09 AM PDT 57 0 Not Applicable
05/11/2026 10 AM PDT 57 0 Not Applicable
05/11/2026 11 AM PDT 57 0 Not Applicable
05/11/2026 12 PM PDT 57 0 Not Applicable
05/11/2026 01 PM PDT 57 0 Not Applicable
05/11/2026 02 PM PDT 57 0 Not Applicable
05/11/2026 03 PM PDT 57 0 Not Applicable
05/11/2026 04 PM PDT 56 - Not Applicable
05/11/2026 05 PM PDT 56 0 Not Applicable
05/11/2026 06 PM PDT 56 0 Not Applicable
05/11/2026 07 PM PDT 56 0 Not Applicable
05/11/2026 08 PM PDT 56 0 Not Applicable
05/11/2026 09 PM PDT 56 0 Not Applicable
05/11/2026 10 PM PDT 56 0 Not Applicable
05/11/2026 11 PM PDT 56 0 Not Applicable
05/12/2026 12 AM PDT 56 0 Not Applicable
05/12/2026 01 AM PDT 56 0 Not Applicable
05/12/2026 02 AM PDT 56 0 Not Applicable
05/12/2026 03 AM PDT 56 0 Not Applicable
05/12/2026 04 AM PDT 55 - Not Applicable
05/12/2026 05 AM PDT 55 0 Not Applicable
05/12/2026 06 AM PDT 55 0 Not Applicable
05/12/2026 07 AM PDT 55 0 Not Applicable
05/12/2026 08 AM PDT 55 0 Not Applicable
05/12/2026 09 AM PDT 55 0 Not Applicable
05/12/2026 10 AM PDT 55 0 Not Applicable
05/12/2026 11 AM PDT 55 0 Not Applicable
05/12/2026 12 PM PDT 55 0 Not Applicable
05/12/2026 01 PM PDT 55 0 Not Applicable
05/12/2026 02 PM PDT 55 0 Not Applicable
05/12/2026 03 PM PDT 54 - Not Applicable
05/12/2026 04 PM PDT 54 0 Not Applicable
05/12/2026 05 PM PDT 54 0 Not Applicable
05/12/2026 06 PM PDT 54 0 Not Applicable
05/12/2026 07 PM PDT 54 0 Not Applicable
05/12/2026 08 PM PDT 54 0 Not Applicable
05/12/2026 09 PM PDT 54 0 Not Applicable
05/12/2026 10 PM PDT 54 0 Not Applicable
05/12/2026 11 PM PDT 54 0 Not Applicable
05/13/2026 12 AM PDT 54 0 Not Applicable
05/13/2026 01 AM PDT 54 0 Not Applicable
05/13/2026 02 AM PDT 54 0 Not Applicable
05/13/2026 03 AM PDT 54 0 Not Applicable
05/13/2026 04 AM PDT 53 - Not Applicable
05/13/2026 05 AM PDT 53 0 Not Applicable
#
# NOTE 1: Flows are rounded to the nearest (1) cfs.
# NOTE 2: Trends are determined using hourly change in unrounded flow.
# NOTE 3: Maximum Values are determined using unrounded flow.
|